Weather History for St. Francis, KS

Change the Weather History Date:

Monday, February 25, 2013

  Actual Average Record
Temperature  
Mean Temperature 27 °F -  
Max Temperature 37 °F 50 °F 37 °F (2013)
Min Temperature 17 °F 23 °F 17 °F (2013)
Degree Days  
Heating Degree Days 38    
Moisture  
Dew Point 24 °F    
Average Humidity 78    
Maximum Humidity 93    
Minimum Humidity 54    
Precipitation  
Precipitation 0.00 in - - ()
Sea Level Pressure  
Sea Level Pressure 29.98 in    
Wind  
Wind Speed 10 mph (NNW)    
Max Wind Speed 16 mph    
Max Gust Speed 23 mph    
Visibility 10 miles    
Events Snow    
Averages and records for this station are not official NWS values.
T = Trace of Precipitation, MM = Missing Value Source: NWS Daily Summary

Daily Weather History Graph

Daily Weather History Graph

Search for Another Location

Airport:

Trip Planner

Search our weather history database for the weather conditions in past years. The results will help you decide how hot, cold, wet, or windy it might be!

Date:

Astronomy

Feb. 25, 2013 Rise Set
Actual Time 7:25 AM CST 6:35 PM CST
Civil Twilight 6:58 AM CST 7:02 PM CST
Nautical Twilight 6:27 AM CST 7:33 PM CST
Astronomical Twilight 5:56 AM CST 8:04 PM CST
Moon 6:50 PM CST (2/25) 6:57 AM CST (2/25)
Length of Visible Light 12h 03m
Length of Day
11h 09m
Full, 100% of the Moon is Illuminated
Feb 25
Full
Feb 25
Full
Mar 4
Last Quarter
Mar 11
New
Mar 19
First Quarter

Hourly Weather History & Observations

Time (CST) Temp. Windchill Dew Point Humidity Pressure Visibility Wind Dir Wind Speed Gust Speed Precip Events Conditions
12:15 AM 30.6 °F 21.2 °F 28.8 °F 93% 30.03 in 5.0 mi NNE 11.5 mph - N/A Snow Light Snow
12:35 AM 30.6 °F 22.4 °F 28.8 °F 93% 30.03 in 5.0 mi North 9.2 mph - N/A   Overcast
12:55 AM 30.6 °F 23.1 °F 28.8 °F 93% 30.03 in 7.0 mi North 8.1 mph - N/A Snow Light Snow
1:15 AM 30.6 °F 23.8 °F 28.4 °F 92% 30.04 in 10.0 mi NNE 6.9 mph - N/A   Overcast
1:35 AM 30.6 °F 23.8 °F 28.4 °F 92% 30.03 in 10.0 mi NNE 6.9 mph - N/A   Overcast
1:55 AM 30.9 °F 24.3 °F 28.9 °F 92% 30.05 in 10.0 mi NNE 6.9 mph - N/A   Overcast
2:15 AM 32.0 °F 23.6 °F 30.2 °F 93% 30.03 in 3.0 mi North 10.4 mph - N/A   Overcast
2:35 AM 31.5 °F 23.5 °F 29.7 °F 93% 30.04 in 2.5 mi North 9.2 mph - N/A   Overcast
2:55 AM 31.1 °F 22.4 °F 29.3 °F 93% 30.03 in 4.0 mi North 10.4 mph - N/A   Overcast
3:15 AM 30.7 °F 21.4 °F 28.9 °F 93% 30.03 in 7.0 mi North 11.5 mph - N/A   Overcast
3:35 AM 30.9 °F 22.2 °F 28.2 °F 90% 30.02 in 10.0 mi North 10.4 mph - N/A   Overcast
3:55 AM 30.7 °F 22.0 °F 28.0 °F 90% 30.02 in 10.0 mi North 10.4 mph - N/A   Overcast
4:15 AM 30.2 °F 19.8 °F 27.1 °F 88% 29.97 in 10.0 mi NNW 13.8 mph - N/A   Overcast
4:35 AM 30.0 °F 20.0 °F 27.0 °F 88% 29.99 in 10.0 mi North 12.7 mph 18.4 mph N/A   Overcast
4:55 AM 29.8 °F 23.0 °F 26.6 °F 88% 30.02 in 10.0 mi North 6.9 mph - N/A   Overcast
5:15 AM 29.7 °F 22.0 °F 26.6 °F 88% 30.04 in 10.0 mi North 8.1 mph - N/A   Overcast
5:35 AM 29.3 °F 22.3 °F 26.2 °F 88% 30.04 in 10.0 mi North 6.9 mph - N/A   Overcast
5:55 AM 28.9 °F 21.1 °F 25.7 °F 88% 30.05 in 10.0 mi North 8.1 mph - N/A   Overcast
6:15 AM 28.8 °F 22.6 °F 25.5 °F 88% 30.05 in 10.0 mi North 5.8 mph - N/A   Overcast
6:35 AM 28.6 °F 19.3 °F 25.5 °F 88% 30.04 in 10.0 mi NNW 10.4 mph - N/A   Overcast
6:55 AM 28.4 °F 17.5 °F 25.2 °F 88% 30.03 in 10.0 mi NNW 13.8 mph - N/A   Overcast
7:15 AM 28.6 °F 16.8 °F 25.2 °F 87% 30.03 in 10.0 mi NNW 16.1 mph - N/A   Overcast
7:35 AM 28.4 °F 18.0 °F 25.2 °F 88% 30.03 in 10.0 mi NNW 12.7 mph 17.3 mph N/A   Overcast
7:55 AM 28.9 °F 17.7 °F 25.2 °F 86% 30.03 in 10.0 mi NNW 15.0 mph - N/A   Overcast
8:15 AM 28.9 °F 18.6 °F 24.8 °F 84% 30.03 in 10.0 mi NNW 12.7 mph 18.4 mph N/A   Overcast
8:35 AM 29.3 °F 19.6 °F 24.8 °F 83% 30.04 in 10.0 mi NNW 11.5 mph 17.3 mph N/A   Overcast
8:55 AM 28.8 °F 20.2 °F 24.1 °F 83% 30.04 in 10.0 mi NNW 9.2 mph 16.1 mph N/A   Mostly Cloudy
9:15 AM 29.3 °F 19.6 °F 24.6 °F 83% 30.04 in 10.0 mi NNW 11.5 mph - N/A   Scattered Clouds
9:35 AM 30.9 °F 21.2 °F 24.8 °F 78% 30.04 in 10.0 mi NNW 12.7 mph 19.6 mph N/A   Clear
9:55 AM 32.0 °F 23.0 °F 25.3 °F 76% 30.04 in 10.0 mi NNW 11.5 mph 16.1 mph N/A   Clear
10:15 AM 32.4 °F 22.1 °F 25.2 °F 75% 30.03 in 10.0 mi North 15.0 mph 19.6 mph N/A   Clear
10:35 AM 32.9 °F 23.7 °F 25.5 °F 74% 30.03 in 10.0 mi North 12.7 mph 23.0 mph N/A   Clear
10:55 AM 33.1 °F 23.0 °F 25.5 °F 74% 30.03 in 10.0 mi North 15.0 mph - N/A   Clear
11:15 AM 34.2 °F 25.7 °F 26.2 °F 73% 30.02 in 10.0 mi North 11.5 mph - N/A   Clear
11:35 AM 35.1 °F 26.9 °F 26.8 °F 72% 30.02 in 10.0 mi North 11.5 mph - N/A   Clear
11:55 AM 35.6 °F 27.5 °F 26.8 °F 70% 30.01 in 10.0 mi North 11.5 mph - N/A   Clear
12:15 PM 35.6 °F 27.5 °F 26.4 °F 69% 30.00 in 10.0 mi North 11.5 mph - N/A   Clear
12:35 PM 36.0 °F 27.1 °F 26.1 °F 67% 29.99 in 10.0 mi North 13.8 mph - N/A   Clear
12:55 PM 36.5 °F 27.4 °F 26.1 °F 66% 29.99 in 10.0 mi North 15.0 mph - N/A   Clear
1:15 PM 36.1 °F 27.3 °F 25.3 °F 65% 29.98 in 10.0 mi North 13.8 mph - N/A   Clear
1:35 PM 36.5 °F 27.0 °F 25.3 °F 64% 29.97 in 10.0 mi North 16.1 mph 21.9 mph N/A   Clear
1:55 PM 36.9 °F 27.8 °F 24.4 °F 61% 29.96 in 10.0 mi North 15.0 mph 21.9 mph N/A   Clear
2:15 PM 37.6 °F 28.8 °F 25.2 °F 61% 29.96 in 10.0 mi North 15.0 mph 18.4 mph N/A   Clear
2:35 PM 37.4 °F 29.8 °F 24.4 °F 60% 29.96 in 10.0 mi North 11.5 mph - N/A   Clear
2:55 PM 37.4 °F 28.9 °F 24.3 °F 59% 29.96 in 10.0 mi North 13.8 mph - N/A   Clear
3:15 PM 37.8 °F 30.2 °F 23.7 °F 57% 29.96 in 10.0 mi North 11.5 mph - N/A   Clear
3:35 PM 37.9 °F 30.5 °F 23.9 °F 57% 29.96 in 10.0 mi North 11.5 mph - N/A   Clear
3:55 PM 37.6 °F 30.0 °F 22.5 °F 54% 29.95 in 10.0 mi North 11.5 mph 18.4 mph N/A   Clear
4:15 PM 37.6 °F 29.6 °F 22.6 °F 55% 29.94 in 10.0 mi North 12.7 mph - N/A   Clear
4:35 PM 37.6 °F 29.6 °F 22.3 °F 54% 29.95 in 10.0 mi North 12.7 mph - N/A   Clear
4:55 PM 36.3 °F 28.4 °F 22.1 °F 56% 29.94 in 10.0 mi North 11.5 mph - N/A   Clear
5:15 PM 35.8 °F 28.3 °F 21.7 °F 57% 29.93 in 10.0 mi North 10.4 mph - N/A   Clear
5:35 PM 34.9 °F 27.1 °F 21.4 °F 58% 29.93 in 10.0 mi North 10.4 mph - N/A   Clear
5:55 PM 33.8 °F 25.8 °F 22.1 °F 62% 29.93 in 10.0 mi North 10.4 mph - N/A   Clear
6:15 PM 32.4 °F - 22.5 °F 67% 29.92 in 10.0 mi Calm Calm - N/A   Clear
6:35 PM 30.4 °F 26.9 °F 21.9 °F 71% 29.92 in 10.0 mi NW 3.5 mph - N/A   Clear
6:55 PM 30.4 °F 23.6 °F 22.1 °F 71% 29.92 in 10.0 mi NNW 6.9 mph - N/A   Clear
7:15 PM 28.8 °F 21.7 °F 21.6 °F 74% 29.92 in 10.0 mi NNW 6.9 mph - N/A   Clear
7:35 PM 27.9 °F 21.5 °F 20.8 °F 75% 29.91 in 10.0 mi NNW 5.8 mph - N/A   Clear
7:55 PM 26.4 °F 20.9 °F 20.3 °F 78% 29.91 in 10.0 mi NNW 4.6 mph - N/A   Clear
8:15 PM 25.7 °F - 20.3 °F 80% 29.91 in 10.0 mi Calm Calm - N/A   Clear
8:35 PM 25.9 °F - 21.0 °F 82% 29.90 in 10.0 mi Calm Calm - N/A   Clear
8:55 PM 24.4 °F - 19.8 °F 82% 29.90 in 10.0 mi Calm Calm - N/A   Clear
9:15 PM 23.5 °F 19.1 °F 18.3 °F 80% 29.90 in 10.0 mi NW 3.5 mph - N/A   Clear
9:55 PM 24.6 °F - 19.4 °F 81% 29.90 in 10.0 mi Calm Calm - N/A   Clear
10:35 PM 20.5 °F 12.8 °F 16.5 °F 85% 29.90 in 10.0 mi WSW 5.8 mph - N/A   Clear
10:55 PM 18.9 °F 8.8 °F 15.4 °F 87% 29.91 in 10.0 mi WSW 8.1 mph - N/A   Clear
11:15 PM 18.7 °F 10.6 °F 14.9 °F 85% 29.90 in 10.0 mi SW 5.8 mph - N/A   Clear
11:35 PM 17.4 °F 8.0 °F 13.8 °F 86% 29.90 in 10.0 mi SW 6.9 mph - N/A   Clear
11:55 PM 17.4 °F 8.0 °F 13.8 °F 86% 29.89 in 10.0 mi WSW 6.9 mph - N/A   Clear